AAL1456 KEWR-KMIA

Flight info

Callsign AAL1456
Flight time N/A
Altitude 40000
Route ELVAE NECCK WHITE Q409 CRPLR BGBRD Q101 SKARP Y313 HOAGG BNFSH3
Aircraft B789/H-SDE1E2E3FGHIJ2J3J4J5M1RWXY/LB1D1

Departure

Time 2026-04-26 15:16
Airport Newark Liberty International Airport (KEWR)

Arrival

Time N/A
Airport Miami International Airport (KMIA)
Time Latitude Longitude Altitude Speed Heading
2026-04-26 14:37 40.69515 -74.17280 28 ft 0 kts 273°
2026-04-26 14:41 40.69404 -74.17363 25 ft 0 kts 10°
2026-04-26 14:41 40.69456 -74.17231 31 ft 0 kts 223°
2026-04-26 14:42 40.69515 -74.17280 28 ft 0 kts 273°
2026-04-26 14:42 40.69642 -74.17263 30 ft 0 kts 193°
2026-04-26 14:42 40.69664 -74.17678 30 ft 0 kts 167°
2026-04-26 14:42 40.69515 -74.17280 28 ft 0 kts 273°
2026-04-26 15:03 40.69515 -74.17277 26 ft 10 kts 273°
2026-04-26 15:03 40.69514 -74.17255 31 ft 8 kts 276°
2026-04-26 15:03 40.69511 -74.17229 31 ft 8 kts 283°
2026-04-26 15:03 40.69505 -74.17205 31 ft 8 kts 301°
2026-04-26 15:04 40.69497 -74.17191 31 ft 8 kts 337°
2026-04-26 15:04 40.69498 -74.17186 31 ft 8 kts 24°
2026-04-26 15:04 40.69504 -74.17178 31 ft 8 kts 49°
2026-04-26 15:04 40.69512 -74.17156 30 ft 8 kts 71°
2026-04-26 15:05 40.69515 -74.17134 27 ft 8 kts 79°
2026-04-26 15:08 40.69515 -74.17133 30 ft 1 kts 80°
2026-04-26 15:08 40.69517 -74.17122 28 ft 2 kts 80°
2026-04-26 15:09 40.69517 -74.17103 26 ft 2 kts 97°
2026-04-26 15:09 40.69514 -74.17092 27 ft 1 kts 115°
2026-04-26 15:09 40.69510 -74.17086 31 ft 1 kts 126°
2026-04-26 15:09 40.69504 -74.17079 30 ft 1 kts 141°
2026-04-26 15:10 40.69499 -74.17076 30 ft 1 kts 153°
2026-04-26 15:10 40.69493 -74.17075 27 ft 1 kts 167°
2026-04-26 15:10 40.69481 -74.17073 29 ft 3 kts 174°
2026-04-26 15:10 40.69445 -74.17070 27 ft 7 kts 178°
2026-04-26 15:11 40.69386 -74.17072 28 ft 10 kts 188°
2026-04-26 15:11 40.69311 -74.17100 26 ft 12 kts 204°
2026-04-26 15:11 40.69230 -74.17151 27 ft 14 kts 206°
2026-04-26 15:11 40.69133 -74.17213 29 ft 17 kts 206°
2026-04-26 15:12 40.69021 -74.17284 31 ft 19 kts 206°
2026-04-26 15:12 40.68896 -74.17363 29 ft 21 kts 205°
2026-04-26 15:12 40.68758 -74.17450 29 ft 23 kts 206°
2026-04-26 15:12 40.68612 -74.17544 29 ft 24 kts 206°
2026-04-26 15:13 40.68455 -74.17644 29 ft 26 kts 205°
2026-04-26 15:13 40.68289 -74.17748 30 ft 27 kts 206°
2026-04-26 15:13 40.68118 -74.17859 30 ft 28 kts 206°
2026-04-26 15:13 40.67939 -74.17971 30 ft 29 kts 205°
2026-04-26 15:14 40.67772 -74.18077 30 ft 23 kts 205°
2026-04-26 15:14 40.67651 -74.18110 27 ft 13 kts 147°
2026-04-26 15:14 40.67594 -74.18030 29 ft 12 kts 130°
2026-04-26 15:14 40.67567 -74.17947 26 ft 7 kts 81°
2026-04-26 15:15 40.67591 -74.17909 26 ft 5 kts 33°
2026-04-26 15:15 40.67597 -74.17905 32 ft 0 kts 25°
2026-04-26 15:15 40.67658 -74.17867 28 ft 27 kts 25°
2026-04-26 15:16 40.67959 -74.17676 28 ft 72 kts 25°
2026-04-26 15:16 40.68604 -74.17266 28 ft 133 kts 26°
2026-04-26 15:16 40.69588 -74.16650 223 ft 167 kts 23°
2026-04-26 15:16 40.70624 -74.15983 1143 ft 162 kts 27°
2026-04-26 15:17 40.71570 -74.15105 1889 ft 176 kts 54°
2026-04-26 15:17 40.71827 -74.14050 2287 ft 192 kts 85°
2026-04-26 15:17 40.72214 -74.11794 3438 ft 200 kts 47°
2026-04-26 15:17 40.73282 -74.10550 4322 ft 211 kts 42°
2026-04-26 15:18 40.74558 -74.09436 5038 ft 234 kts 19°
2026-04-26 15:18 40.76238 -74.09248 5856 ft 254 kts 348°
2026-04-26 15:18 40.77828 -74.10315 6903 ft 268 kts 317°
2026-04-26 15:18 40.78687 -74.12498 7974 ft 277 kts 283°
2026-04-26 15:19 40.78655 -74.15069 9072 ft 287 kts 257°
2026-04-26 15:19 40.77736 -74.17426 10164 ft 298 kts 230°
2026-04-26 15:19 40.76007 -74.19079 10799 ft 323 kts 202°
2026-04-26 15:19 40.73794 -74.20054 11287 ft 349 kts 197°
2026-04-26 15:20 40.71370 -74.20938 11824 ft 372 kts 196°
2026-04-26 15:20 40.68870 -74.21888 12935 ft 375 kts 198°
2026-04-26 15:20 40.66385 -74.22915 13922 ft 384 kts 200°
2026-04-26 15:20 40.63812 -74.23977 14869 ft 390 kts 199°
2026-04-26 15:21 40.61162 -74.25030 15848 ft 396 kts 200°
2026-04-26 15:21 40.58547 -74.26063 16782 ft 401 kts 200°
2026-04-26 15:21 40.55795 -74.26841 17692 ft 412 kts 186°
2026-04-26 15:21 40.52908 -74.26593 18592 ft 423 kts 169°
2026-04-26 15:22 40.50091 -74.25399 19383 ft 429 kts 161°
2026-04-26 15:22 40.47277 -74.24011 20242 ft 432 kts 160°
2026-04-26 15:22 40.44465 -74.22575 21088 ft 436 kts 160°
2026-04-26 15:22 40.41616 -74.21150 21917 ft 440 kts 161°
2026-04-26 15:23 40.38741 -74.19746 22729 ft 443 kts 161°
2026-04-26 15:23 40.35837 -74.18317 23556 ft 447 kts 161°
2026-04-26 15:23 40.32869 -74.17133 24239 ft 447 kts 173°
2026-04-26 15:23 40.29790 -74.16804 24984 ft 442 kts 186°
2026-04-26 15:24 40.26762 -74.17326 25728 ft 437 kts 197°
2026-04-26 15:24 40.23789 -74.18197 26469 ft 438 kts 197°
2026-04-26 15:24 40.20818 -74.19092 27262 ft 438 kts 198°
2026-04-26 15:24 40.17846 -74.19999 28073 ft 439 kts 198°
2026-04-26 15:25 40.14867 -74.20893 28894 ft 440 kts 198°
2026-04-26 15:25 40.12888 -74.21480 29452 ft 441 kts 198°
2026-04-26 15:25 40.08881 -74.22674 30533 ft 442 kts 198°
2026-04-26 15:25 40.05874 -74.23577 31216 ft 444 kts 198°
2026-04-26 15:26 40.02873 -74.24565 31850 ft 444 kts 204°
2026-04-26 15:26 40.00032 -74.26117 32502 ft 442 kts 212°
2026-04-26 15:26 39.97429 -74.28236 33156 ft 441 kts 220°
2026-04-26 15:26 39.94944 -74.30599 33778 ft 445 kts 219°
2026-04-26 15:27 39.92434 -74.32984 34410 ft 447 kts 220°
2026-04-26 15:27 39.89926 -74.35376 35195 ft 445 kts 220°
2026-04-26 15:27 39.87425 -74.37759 35849 ft 446 kts 219°
2026-04-26 15:27 39.84915 -74.40143 36507 ft 447 kts 219°
2026-04-26 15:28 39.82409 -74.42543 37146 ft 447 kts 222°
2026-04-26 15:28 39.80147 -74.45272 37782 ft 444 kts 228°
2026-04-26 15:28 39.77979 -74.48146 38385 ft 445 kts 228°
2026-04-26 15:28 39.75815 -74.51020 38975 ft 446 kts 228°
2026-04-26 15:29 39.73641 -74.53908 39432 ft 447 kts 228°
2026-04-26 15:29 39.71459 -74.56798 39880 ft 449 kts 228°
2026-04-26 15:29 39.67028 -74.62659 40134 ft 462 kts 228°
2026-04-26 15:30 39.62577 -74.68529 40127 ft 455 kts 228°
2026-04-26 15:30 39.58170 -74.74340 40126 ft 451 kts 228°
2026-04-26 15:31 39.51554 -74.83034 40129 ft 452 kts 228°
2026-04-26 15:32 39.45657 -74.90765 40137 ft 454 kts 227°
2026-04-26 15:32 39.40457 -74.97563 40139 ft 455 kts 227°
2026-04-26 15:33 39.36014 -75.03362 40140 ft 454 kts 227°
2026-04-26 15:33 39.31569 -75.09151 40138 ft 453 kts 227°
2026-04-26 15:34 39.26973 -75.14717 40147 ft 453 kts 225°
2026-04-26 15:34 39.22306 -75.20195 40140 ft 454 kts 225°
2026-04-26 15:35 39.17620 -75.25663 40133 ft 454 kts 225°
2026-04-26 15:35 39.12964 -75.31096 40135 ft 455 kts 225°
2026-04-26 15:36 39.08241 -75.36592 40132 ft 455 kts 225°
2026-04-26 15:36 39.03281 -75.41674 40149 ft 460 kts 212°
2026-04-26 15:37 38.97267 -75.44628 40157 ft 470 kts 194°
2026-04-26 15:37 38.90801 -75.45641 40147 ft 471 kts 190°
2026-04-26 15:38 38.84296 -75.46525 40146 ft 470 kts 190°
2026-04-26 15:38 38.77807 -75.47427 40142 ft 468 kts 190°
2026-04-26 15:39 38.71327 -75.48316 40142 ft 468 kts 190°
2026-04-26 15:39 38.65985 -75.49043 40134 ft 468 kts 190°
2026-04-26 15:40 38.58460 -75.50064 40131 ft 468 kts 190°
2026-04-26 15:40 38.51986 -75.50941 40120 ft 468 kts 190°
2026-04-26 15:41 38.45513 -75.51817 40118 ft 468 kts 190°
2026-04-26 15:41 38.39034 -75.52692 40129 ft 468 kts 190°
2026-04-26 15:42 38.32843 -75.54775 40152 ft 458 kts 209°
2026-04-26 15:42 38.27465 -75.58996 40139 ft 454 kts 217°
2026-04-26 15:43 38.22254 -75.63541 40137 ft 454 kts 217°
2026-04-26 15:44 38.14426 -75.70343 40133 ft 454 kts 217°
2026-04-26 15:44 38.06594 -75.77137 40127 ft 454 kts 217°
2026-04-26 15:45 37.98760 -75.83910 40119 ft 454 kts 217°
2026-04-26 15:46 37.90964 -75.90635 40111 ft 454 kts 217°
2026-04-26 15:46 37.87472 -75.93641 40107 ft 454 kts 217°
2026-04-26 15:47 37.77915 -76.01851 40103 ft 453 kts 217°
2026-04-26 15:48 37.72702 -76.06318 40103 ft 453 kts 217°
2026-04-26 15:48 37.67474 -76.10789 40104 ft 454 kts 217°
2026-04-26 15:49 37.62125 -76.15154 40124 ft 458 kts 209°
2026-04-26 15:49 37.56063 -76.17625 40132 ft 468 kts 194°
2026-04-26 15:50 37.49658 -76.19062 40115 ft 467 kts 194°
2026-04-26 15:50 37.43271 -76.20477 40114 ft 465 kts 194°
2026-04-26 15:51 37.37943 -76.21665 40108 ft 464 kts 194°
2026-04-26 15:51 37.31576 -76.23077 40099 ft 463 kts 194°
2026-04-26 15:52 37.25221 -76.24486 40089 ft 464 kts 194°
2026-04-26 15:52 37.18857 -76.25893 40087 ft 465 kts 194°
2026-04-26 15:53 37.12472 -76.27303 40089 ft 466 kts 194°
2026-04-26 15:53 37.06076 -76.28713 40087 ft 467 kts 194°
2026-04-26 15:54 36.99684 -76.30118 40084 ft 465 kts 194°
2026-04-26 15:54 36.93361 -76.31508 40075 ft 464 kts 194°
2026-04-26 15:55 36.87004 -76.32902 40085 ft 463 kts 194°
2026-04-26 15:55 36.80651 -76.34293 40101 ft 464 kts 194°
2026-04-26 15:56 36.74281 -76.35685 40099 ft 465 kts 194°
2026-04-26 15:56 36.67904 -76.37077 40091 ft 466 kts 194°
2026-04-26 15:57 36.61520 -76.38467 40094 ft 466 kts 194°
2026-04-26 15:57 36.55124 -76.39858 40086 ft 467 kts 194°
2026-04-26 15:58 36.48725 -76.41247 40083 ft 467 kts 194°
2026-04-26 15:58 36.42328 -76.42633 40078 ft 466 kts 194°
2026-04-26 15:59 36.35941 -76.44015 40063 ft 465 kts 194°
2026-04-26 15:59 36.29573 -76.45391 40062 ft 464 kts 194°
2026-04-26 16:00 36.23222 -76.46760 40068 ft 463 kts 194°
2026-04-26 16:00 36.16877 -76.48126 40069 ft 463 kts 194°
2026-04-26 16:01 36.10525 -76.49492 40074 ft 464 kts 194°
2026-04-26 16:01 36.04160 -76.50857 40075 ft 465 kts 194°
2026-04-26 16:02 35.97784 -76.52223 40088 ft 465 kts 194°
2026-04-26 16:02 35.91421 -76.53615 40082 ft 462 kts 199°
2026-04-26 16:03 35.85534 -76.56481 40073 ft 454 kts 210°
2026-04-26 16:03 35.79893 -76.59964 40071 ft 453 kts 211°
2026-04-26 16:04 35.74254 -76.63443 40058 ft 453 kts 210°
2026-04-26 16:04 35.68650 -76.66890 40042 ft 453 kts 211°
2026-04-26 16:05 35.63009 -76.70359 40037 ft 454 kts 210°
2026-04-26 16:05 35.57350 -76.73830 40037 ft 455 kts 210°
2026-04-26 16:06 35.51642 -76.77328 40036 ft 457 kts 210°
2026-04-26 16:06 35.45983 -76.80789 40037 ft 457 kts 210°
2026-04-26 16:07 35.40294 -76.84262 40036 ft 456 kts 210°
2026-04-26 16:07 35.34623 -76.87721 40030 ft 455 kts 210°
2026-04-26 16:08 35.28965 -76.91164 40017 ft 454 kts 210°
2026-04-26 16:08 35.23312 -76.94601 40014 ft 453 kts 211°
2026-04-26 16:09 35.17712 -76.98135 40023 ft 454 kts 211°
2026-04-26 16:09 35.12080 -77.01661 40030 ft 455 kts 211°
2026-04-26 16:10 35.06453 -77.05177 40026 ft 453 kts 211°
2026-04-26 16:10 35.00848 -77.08682 40016 ft 452 kts 211°
2026-04-26 16:11 34.95255 -77.12167 40020 ft 452 kts 211°
2026-04-26 16:11 34.89643 -77.15663 40004 ft 454 kts 210°
2026-04-26 16:12 34.84010 -77.19164 39983 ft 456 kts 210°
2026-04-26 16:12 34.75511 -77.24438 39975 ft 458 kts 210°
2026-04-26 16:13 34.69824 -77.27959 39973 ft 459 kts 210°
2026-04-26 16:13 34.64134 -77.31477 39977 ft 459 kts 210°
2026-04-26 16:14 34.58435 -77.34996 39973 ft 460 kts 210°
2026-04-26 16:15 34.49830 -77.40214 39987 ft 464 kts 204°
2026-04-26 16:15 34.43490 -77.42053 39972 ft 473 kts 193°
2026-04-26 16:16 34.33764 -77.43949 39971 ft 472 kts 193°
2026-04-26 16:16 34.27284 -77.45222 39961 ft 472 kts 193°
2026-04-26 16:17 34.20799 -77.46484 39954 ft 473 kts 193°
2026-04-26 16:17 34.14298 -77.47752 39962 ft 474 kts 193°
2026-04-26 16:18 34.04566 -77.49643 39957 ft 475 kts 193°
2026-04-26 16:19 33.94775 -77.51543 39957 ft 475 kts 193°
2026-04-26 16:20 33.85003 -77.53434 39956 ft 474 kts 193°
2026-04-26 16:20 33.75250 -77.55317 39950 ft 473 kts 193°
2026-04-26 16:21 33.68762 -77.56567 39947 ft 472 kts 193°
2026-04-26 16:21 33.62275 -77.57816 39949 ft 472 kts 193°
2026-04-26 16:22 33.55861 -77.59409 39978 ft 469 kts 200°
2026-04-26 16:22 33.49558 -77.61601 39955 ft 473 kts 200°
2026-04-26 16:23 33.43236 -77.63820 39962 ft 474 kts 200°
2026-04-26 16:23 33.36893 -77.66035 39956 ft 475 kts 199°
2026-04-26 16:24 33.30548 -77.68248 39950 ft 475 kts 200°
2026-04-26 16:24 33.24195 -77.70462 39943 ft 476 kts 199°
2026-04-26 16:25 33.17836 -77.72673 39941 ft 476 kts 199°
2026-04-26 16:25 33.11472 -77.74884 39942 ft 476 kts 199°
2026-04-26 16:26 33.06176 -77.76720 39943 ft 478 kts 200°
2026-04-26 16:26 32.98650 -77.79328 39943 ft 484 kts 200°
2026-04-26 16:27 32.92214 -77.81551 39947 ft 485 kts 200°
2026-04-26 16:27 32.85733 -77.83790 39946 ft 485 kts 200°
2026-04-26 16:28 32.79243 -77.86026 39936 ft 486 kts 200°
2026-04-26 16:28 32.72751 -77.88260 39938 ft 486 kts 200°
2026-04-26 16:29 32.66252 -77.90493 39941 ft 486 kts 200°
2026-04-26 16:29 32.59707 -77.92602 39937 ft 487 kts 199°
2026-04-26 16:30 32.53169 -77.94724 39941 ft 487 kts 199°
2026-04-26 16:30 32.46624 -77.96849 39939 ft 488 kts 199°
2026-04-26 16:31 32.40071 -77.98963 39938 ft 488 kts 199°
2026-04-26 16:31 32.33514 -78.01085 39941 ft 489 kts 199°
2026-04-26 16:32 32.28051 -78.02843 39937 ft 490 kts 199°
2026-04-26 16:32 32.20345 -78.05327 39943 ft 492 kts 199°
2026-04-26 16:33 32.13721 -78.07455 39945 ft 494 kts 199°
2026-04-26 16:33 32.07089 -78.09585 39942 ft 494 kts 199°
2026-04-26 16:34 32.00460 -78.11709 39945 ft 494 kts 199°
2026-04-26 16:34 31.93833 -78.13830 39943 ft 494 kts 198°
2026-04-26 16:35 31.88321 -78.15592 39944 ft 494 kts 198°
2026-04-26 16:35 31.80624 -78.18048 39941 ft 493 kts 198°
2026-04-26 16:36 31.73996 -78.20160 39948 ft 493 kts 198°
2026-04-26 16:36 31.67360 -78.22271 39946 ft 495 kts 198°
2026-04-26 16:37 31.61782 -78.24043 39943 ft 497 kts 198°
2026-04-26 16:37 31.55100 -78.26164 39951 ft 498 kts 198°
2026-04-26 16:38 31.48399 -78.28286 39948 ft 499 kts 198°
2026-04-26 16:38 31.41773 -78.30459 39948 ft 497 kts 199°
2026-04-26 16:39 31.35137 -78.32722 39948 ft 496 kts 198°
2026-04-26 16:39 31.28491 -78.34918 39945 ft 496 kts 199°
2026-04-26 16:40 31.21849 -78.37153 39950 ft 498 kts 198°
2026-04-26 16:40 31.15182 -78.39367 39950 ft 499 kts 198°
2026-04-26 16:41 31.08496 -78.41599 39955 ft 500 kts 198°
2026-04-26 16:41 31.01794 -78.43824 39954 ft 502 kts 198°
2026-04-26 16:42 30.95075 -78.46057 39954 ft 502 kts 198°
2026-04-26 16:42 30.88366 -78.48280 39953 ft 501 kts 198°
2026-04-26 16:43 30.81669 -78.50497 39955 ft 500 kts 198°
2026-04-26 16:43 30.74978 -78.52709 39962 ft 499 kts 198°
2026-04-26 16:44 30.68287 -78.54918 39961 ft 501 kts 198°
2026-04-26 16:44 30.61577 -78.57130 39960 ft 502 kts 198°
2026-04-26 16:45 30.54853 -78.59343 39963 ft 503 kts 198°
2026-04-26 16:45 30.48111 -78.61559 39961 ft 504 kts 198°
2026-04-26 16:46 30.41355 -78.63776 39960 ft 505 kts 198°
2026-04-26 16:46 30.34596 -78.65991 39960 ft 505 kts 198°
2026-04-26 16:47 30.27845 -78.68201 39965 ft 504 kts 198°
2026-04-26 16:47 30.21097 -78.70406 39965 ft 503 kts 198°
2026-04-26 16:48 30.14380 -78.72598 39966 ft 501 kts 198°
2026-04-26 16:48 30.07679 -78.74781 39972 ft 501 kts 198°
2026-04-26 16:49 30.00962 -78.76967 39971 ft 502 kts 198°
2026-04-26 16:49 29.94224 -78.79156 39975 ft 504 kts 198°
2026-04-26 16:50 29.87477 -78.81345 39977 ft 503 kts 198°
2026-04-26 16:50 29.80738 -78.83528 39970 ft 502 kts 198°
2026-04-26 16:51 29.77338 -78.84424 39997 ft 503 kts 187°
2026-04-26 16:51 29.73859 -78.84899 39979 ft 504 kts 188°
2026-04-26 16:51 29.66926 -78.85825 39991 ft 504 kts 188°
2026-04-26 16:52 29.61109 -78.86614 39994 ft 503 kts 188°
2026-04-26 16:52 29.52979 -78.87707 39990 ft 503 kts 188°
2026-04-26 16:53 29.46032 -78.88643 39992 ft 503 kts 188°
2026-04-26 16:53 29.39131 -78.89569 39989 ft 502 kts 188°
2026-04-26 16:54 29.32192 -78.90499 39989 ft 502 kts 188°
2026-04-26 16:54 29.24879 -78.91479 39987 ft 502 kts 188°
2026-04-26 16:55 29.17949 -78.92406 39985 ft 501 kts 188°
2026-04-26 16:55 29.11026 -78.93330 39986 ft 502 kts 188°
2026-04-26 16:56 29.00593 -78.94721 39989 ft 504 kts 188°
2026-04-26 16:57 28.93619 -78.95649 39994 ft 505 kts 188°
2026-04-26 16:57 28.83168 -78.97038 39990 ft 503 kts 188°
2026-04-26 16:58 28.78517 -78.97655 39991 ft 502 kts 188°
2026-04-26 16:59 28.65822 -78.99336 39989 ft 501 kts 188°
2026-04-26 17:00 28.51990 -79.01164 39989 ft 501 kts 188°
2026-04-26 17:00 28.41601 -79.02533 39987 ft 501 kts 188°
2026-04-26 17:01 28.34676 -79.03506 39990 ft 500 kts 195°
2026-04-26 17:01 28.28062 -79.05800 40006 ft 497 kts 201°
2026-04-26 17:02 28.21494 -79.08284 40003 ft 497 kts 200°
2026-04-26 17:02 28.14926 -79.10712 39999 ft 496 kts 201°
2026-04-26 17:03 28.08390 -79.13156 39997 ft 494 kts 201°
2026-04-26 17:03 28.01851 -79.15581 39985 ft 493 kts 200°
2026-04-26 17:04 27.95338 -79.18003 39982 ft 492 kts 200°
2026-04-26 17:04 27.88833 -79.20414 39984 ft 492 kts 200°
2026-04-26 17:05 27.82312 -79.22829 39988 ft 494 kts 200°
2026-04-26 17:05 27.75777 -79.25247 39986 ft 495 kts 200°
2026-04-26 17:06 27.69229 -79.27666 39991 ft 496 kts 200°
2026-04-26 17:06 27.62674 -79.30084 39986 ft 495 kts 200°
2026-04-26 17:07 27.57236 -79.32088 39981 ft 494 kts 200°
2026-04-26 17:07 27.50705 -79.34492 39986 ft 493 kts 200°
2026-04-26 17:08 27.44192 -79.36886 39982 ft 492 kts 200°
2026-04-26 17:08 27.37691 -79.39273 39955 ft 490 kts 200°
2026-04-26 17:09 27.34441 -79.40467 39503 ft 494 kts 200°
2026-04-26 17:09 27.32270 -79.41263 39251 ft 496 kts 200°
2026-04-26 17:09 27.27877 -79.42872 38830 ft 497 kts 200°
2026-04-26 17:09 27.24588 -79.44075 38443 ft 498 kts 200°
2026-04-26 17:10 27.21290 -79.45282 38023 ft 499 kts 200°
2026-04-26 17:10 27.17991 -79.46489 37618 ft 500 kts 200°
2026-04-26 17:10 27.14683 -79.47698 37211 ft 501 kts 200°
2026-04-26 17:10 27.11363 -79.48911 36785 ft 502 kts 200°
2026-04-26 17:11 27.08039 -79.50124 36368 ft 503 kts 200°
2026-04-26 17:11 27.04706 -79.51340 35947 ft 504 kts 200°
2026-04-26 17:11 27.01368 -79.52557 35589 ft 504 kts 200°
2026-04-26 17:11 26.98047 -79.53766 35393 ft 500 kts 200°
2026-04-26 17:12 26.91450 -79.56167 34837 ft 497 kts 200°
2026-04-26 17:12 26.88167 -79.57361 34566 ft 495 kts 200°
2026-04-26 17:13 26.81631 -79.59717 34038 ft 492 kts 200°
2026-04-26 17:13 26.78379 -79.60888 33759 ft 490 kts 200°
2026-04-26 17:13 26.71923 -79.63217 33231 ft 485 kts 200°
2026-04-26 17:14 26.68711 -79.64372 32981 ft 483 kts 200°
2026-04-26 17:14 26.62341 -79.66663 32474 ft 479 kts 200°
2026-04-26 17:14 26.59173 -79.67787 32215 ft 477 kts 200°
2026-04-26 17:15 26.52869 -79.69970 31733 ft 472 kts 200°
2026-04-26 17:15 26.49741 -79.71075 31481 ft 469 kts 201°
2026-04-26 17:15 26.46784 -79.72544 31230 ft 463 kts 213°
2026-04-26 17:16 26.44182 -79.74602 30973 ft 456 kts 225°
2026-04-26 17:16 26.41969 -79.77108 30702 ft 452 kts 230°
2026-04-26 17:16 26.39838 -79.79681 30426 ft 450 kts 230°
2026-04-26 17:16 26.37843 -79.82344 30171 ft 445 kts 238°
2026-04-26 17:17 26.36087 -79.85180 29874 ft 444 kts 238°
2026-04-26 17:17 26.34340 -79.87968 29134 ft 434 kts 238°
2026-04-26 17:17 26.32606 -79.90728 28034 ft 432 kts 238°
2026-04-26 17:17 26.30906 -79.93443 27144 ft 423 kts 238°
2026-04-26 17:18 26.29234 -79.96116 26244 ft 417 kts 238°
2026-04-26 17:18 26.27503 -79.98679 25329 ft 413 kts 230°
2026-04-26 17:18 26.25373 -80.00807 24464 ft 412 kts 218°
2026-04-26 17:18 26.22933 -80.02374 23613 ft 411 kts 206°
2026-04-26 17:19 26.17453 -80.04002 21629 ft 404 kts 195°
2026-04-26 17:19 26.14728 -80.04627 20766 ft 397 kts 194°
2026-04-26 17:19 26.12040 -80.05230 19885 ft 391 kts 194°
2026-04-26 17:20 26.09391 -80.05833 19045 ft 386 kts 195°
2026-04-26 17:20 26.07949 -80.06164 18581 ft 382 kts 195°
2026-04-26 17:20 26.04570 -80.07068 17267 ft 375 kts 197°
2026-04-26 17:20 26.02042 -80.07689 16369 ft 369 kts 195°
2026-04-26 17:21 25.99555 -80.08296 15455 ft 363 kts 196°
2026-04-26 17:21 25.97109 -80.08941 14568 ft 358 kts 197°
2026-04-26 17:21 25.94702 -80.09584 13709 ft 353 kts 197°
2026-04-26 17:21 25.92455 -80.10543 12693 ft 342 kts 215°
2026-04-26 17:22 25.90660 -80.12207 11748 ft 332 kts 230°
2026-04-26 17:22 25.89146 -80.14105 11070 ft 318 kts 236°
2026-04-26 17:22 25.88195 -80.16177 10926 ft 287 kts 254°
2026-04-26 17:22 25.87871 -80.18268 10547 ft 270 kts 270°
2026-04-26 17:23 25.87824 -80.20364 9828 ft 272 kts 269°
2026-04-26 17:23 25.87757 -80.22449 9163 ft 269 kts 269°
2026-04-26 17:23 25.87687 -80.24516 8517 ft 267 kts 269°
2026-04-26 17:23 25.87621 -80.26565 7860 ft 265 kts 269°
2026-04-26 17:24 25.87612 -80.28596 7200 ft 261 kts 279°
2026-04-26 17:24 25.88241 -80.30466 6495 ft 260 kts 296°
2026-04-26 17:24 25.89085 -80.32255 5794 ft 261 kts 298°
2026-04-26 17:24 25.89970 -80.34009 5510 ft 263 kts 298°
2026-04-26 17:25 25.90852 -80.35798 5174 ft 265 kts 298°
2026-04-26 17:25 25.91728 -80.37611 4821 ft 267 kts 298°
2026-04-26 17:25 25.92592 -80.39394 4444 ft 262 kts 298°
2026-04-26 17:25 25.93438 -80.41162 4084 ft 249 kts 294°
2026-04-26 17:26 25.93719 -80.42963 3925 ft 230 kts 266°
2026-04-26 17:26 25.93700 -80.44745 3893 ft 228 kts 270°
2026-04-26 17:26 25.93697 -80.46488 3951 ft 226 kts 269°
2026-04-26 17:26 25.93668 -80.48243 4001 ft 227 kts 268°
2026-04-26 17:27 25.93631 -80.49995 4005 ft 228 kts 266°
2026-04-26 17:27 25.93061 -80.51590 3990 ft 225 kts 225°
2026-04-26 17:27 25.91686 -80.52322 3999 ft 224 kts 183°
2026-04-26 17:27 25.90215 -80.51867 4001 ft 225 kts 149°
2026-04-26 17:28 25.88927 -80.50879 4007 ft 225 kts 143°
2026-04-26 17:28 25.87680 -80.49834 4008 ft 224 kts 143°
2026-04-26 17:28 25.86476 -80.48738 3989 ft 224 kts 131°
2026-04-26 17:28 25.85978 -80.47135 3990 ft 226 kts 92°
2026-04-26 17:29 25.86093 -80.45401 4005 ft 226 kts 84°
2026-04-26 17:29 25.86222 -80.44252 4003 ft 226 kts 83°